TimeAKST,TemperatureF,Dew PointF,Humidity,Sea Level PressureIn,VisibilityMPH,Wind Direction,Wind SpeedMPH,Gust SpeedMPH,PrecipitationIn,Events,Conditions,WindDirDegrees,DateUTC
12:53 AM,17.1,10.0,74,30.61,9.0,ENE,4.6,-,0.00,Snow,Light Snow,60,2013-11-17 09:53:00
1:53 AM,17.1,10.0,74,30.60,10.0,NE,6.9,-,0.00,,Overcast,40,2013-11-17 10:53:00
2:53 AM,18.0,10.0,71,30.59,10.0,NE,5.8,-,N/A,,Overcast,50,2013-11-17 11:53:00
3:53 AM,18.0,10.0,71,30.59,10.0,NE,6.9,-,N/A,,Overcast,40,2013-11-17 12:53:00
4:53 AM,18.0,10.9,74,30.58,10.0,North,4.6,-,N/A,,Overcast,350,2013-11-17 13:53:00
5:41 AM,17.6,12.2,79,30.58,4.0,North,5.8,-,0.00,Snow,Light Snow,360,2013-11-17 14:41:00
5:53 AM,18.0,12.0,78,30.62,3.0,North,6.9,-,0.00,Snow,Light Snow,360,2013-11-17 14:53:00
6:53 AM,10.9,7.0,84,30.58,10.0,North,5.8,-,0.01,,Mostly Cloudy,360,2013-11-17 15:53:00
7:53 AM,12.0,8.1,84,30.58,10.0,North,5.8,-,N/A,,Overcast,350,2013-11-17 16:53:00
8:53 AM,10.0,6.1,84,30.59,10.0,North,5.8,-,N/A,,Mostly Cloudy,10,2013-11-17 17:53:00
9:53 AM,10.0,7.0,87,30.59,10.0,Calm,Calm,-,N/A,,Mostly Cloudy,0,2013-11-17 18:53:00
10:53 AM,9.0,6.1,88,30.59,10.0,North,4.6,-,N/A,,Mostly Cloudy,10,2013-11-17 19:53:00
11:53 AM,6.1,3.9,91,30.60,10.0,North,5.8,-,N/A,,Mostly Cloudy,10,2013-11-17 20:53:00
12:53 PM,12.0,7.0,80,30.60,10.0,NNE,3.5,-,N/A,,Mostly Cloudy,20,2013-11-17 21:53:00
1:53 PM,16.0,9.0,74,30.60,10.0,North,4.6,-,N/A,,Mostly Cloudy,350,2013-11-17 22:53:00
2:53 PM,14.0,8.1,77,30.58,10.0,NNW,9.2,-,N/A,,Mostly Cloudy,330,2013-11-17 23:53:00
3:53 PM,10.9,5.0,77,30.58,10.0,North,3.5,-,N/A,,Mostly Cloudy,350,2013-11-18 00:53:00
6:15 PM,6.1,1.0,80,30.57,10.0,Calm,Calm,-,N/A,,Scattered Clouds,0,2013-11-18 03:15:00
6:55 PM,1.0,-4.0,79,30.57,10.0,NNE,4.6,-,N/A,,Scattered Clouds,30,2013-11-18 03:55:00
7:53 PM,-0.0,-2.9,88,30.58,10.0,Calm,Calm,-,N/A,,Scattered Clouds,0,2013-11-18 04:53:00
7:55 PM,-0.0,-2.9,88,30.58,10.0,Calm,Calm,-,N/A,,Scattered Clouds,0,2013-11-18 04:55:00
8:53 PM,3.0,-0.0,87,30.56,10.0,Calm,Calm,-,N/A,,Mostly Cloudy,0,2013-11-18 05:53:00
8:55 PM,3.0,-0.0,87,30.56,10.0,Calm,Calm,-,N/A,,Mostly Cloudy,0,2013-11-18 05:55:00
9:53 PM,3.9,-0.0,84,30.54,10.0,Calm,Calm,-,N/A,,Mostly Cloudy,0,2013-11-18 06:53:00
9:55 PM,3.9,-0.0,84,30.54,10.0,Calm,Calm,-,N/A,,Mostly Cloudy,0,2013-11-18 06:55:00
10:53 PM,9.0,3.0,77,30.54,10.0,NNW,6.9,-,N/A,,Mostly Cloudy,340,2013-11-18 07:53:00
10:55 PM,9.0,3.0,77,30.54,10.0,NNW,6.9,-,N/A,,Mostly Cloudy,340,2013-11-18 07:55:00
11:55 PM,5.0,-0.9,76,30.54,10.0,North,5.8,-,N/A,,Scattered Clouds,10,2013-11-18 08:55:00